| time (UTC) | temp F | wind direction | speed MPH | gust MPH | rain 1hr in | rain 24hr in | rain mn in | humidity % | barometer mb |
| 20260507075705 | 49 | 93 | 2.0 | 4.0 | 0.00 | 0.00 | 0.00 | 89 | 1016.3 |
| 20260507075204 | 49 | 66 | 4.0 | 4.0 | 0.00 | 0.00 | 0.00 | 89 | 1016.3 |
| 20260507074704 | 48 | 104 | 2.0 | 4.0 | 0.00 | 0.00 | 0.00 | 89 | 1016.2 |
| 20260507074206 | 48 | 104 | 1.0 | 4.0 | 0.00 | 0.00 | 0.00 | 89 | 1016.3 |
| 20260507073702 | 47 | 114 | 0.0 | 3.0 | 0.00 | 0.00 | 0.00 | 88 | 1016.2 |
| 20260507073201 | 47 | 158 | 1.0 | 3.0 | 0.00 | 0.00 | 0.00 | 88 | 1016.3 |
| 20260507072702 | 47 | 159 | 1.0 | 3.0 | 0.00 | 0.00 | 0.00 | 89 | 1016.3 |
| 20260507072200 | 47 | 152 | 1.0 | 2.0 | 0.00 | 0.00 | 0.00 | 89 | 1016.3 |
| 20260507071946 | 47 | 152 | 0.0 | 3.0 | 0.00 | 0.00 | 0.00 | 89 | 1016.3 |
| 20260507071325 | 47 | 110 | 1.0 | 3.0 | 0.00 | 0.00 | 0.00 | 90 | 1016.2 |
| 20260507071259 | 47 | 151 | 1.0 | 3.0 | 0.00 | 0.00 | 0.00 | 89 | 1016.2 |
| 20260507070200 | 47 | 110 | 0.0 | 3.0 | 0.00 | 0.00 | 0.00 | 90 | 1016.2 |
| 20260507065655 | 47 | 110 | 2.0 | 4.0 | 0.00 | 0.00 | 0.00 | 90 | 1016.1 |
| 20260507065443 | 47 | 110 | 1.0 | 4.0 | 0.00 | 0.00 | 0.00 | 90 | 1016.1 |
| 20260507064658 | 46 | 110 | 1.0 | 4.0 | 0.00 | 0.00 | 0.00 | 90 | 1016.1 |
| 20260507064155 | 46 | 75 | 2.0 | 4.0 | 0.00 | 0.00 | 0.00 | 90 | 1016.1 |
| 20260507063652 | 46 | 68 | 1.0 | 3.0 | 0.00 | 0.00 | 0.00 | 90 | 1016.1 |
| 20260507063151 | 46 | 68 | 0.0 | 4.0 | 0.00 | 0.00 | 0.00 | 90 | 1016.0 |
| 20260507062650 | 46 | 68 | 2.0 | 4.0 | 0.00 | 0.00 | 0.00 | 91 | 1016.0 |
| 20260507062151 | 46 | 66 | 0.0 | 2.0 | 0.00 | 0.00 | 0.00 | 91 | 1016.0 |
| 20260507061651 | 46 | 66 | 0.0 | 0.0 | 0.00 | 0.00 | 0.00 | 91 | 1016.0 |
| 20260507061437 | 46 | 66 | 0.0 | 0.0 | 0.00 | 0.00 | 0.00 | 91 | 1016.0 |
| 20260507060654 | 46 | 66 | 0.0 | 2.0 | 0.00 | 0.00 | 0.00 | 91 | 1015.9 |
| 20260507060434 | 46 | 42 | 0.0 | 2.0 | 0.00 | 0.00 | 0.00 | 91 | 1015.9 |
| 20260507055652 | 46 | 42 | 0.0 | 2.0 | 0.00 | 0.00 | 0.00 | 90 | 1015.9 |
| 20260507055156 | 45 | 42 | 0.0 | 2.0 | 0.00 | 0.00 | 0.00 | 91 | 1015.8 |
| 20260507054652 | 45 | 42 | 0.0 | 0.0 | 0.00 | 0.00 | 0.00 | 90 | 1015.9 |
| 20260507054154 | 45 | 42 | 0.0 | 0.0 | 0.00 | 0.00 | 0.00 | 90 | 1015.8 |
| 20260507053651 | 45 | 42 | 0.0 | 0.0 | 0.00 | 0.00 | 0.00 | 90 | 1015.8 |
| 20260507053148 | 45 | 42 | 0.0 | 0.0 | 0.00 | 0.00 | 0.00 | 90 | 1015.7 |
| 20260507052646 | 44 | 42 | 0.0 | 0.0 | 0.00 | 0.00 | 0.00 | 89 | 1015.8 |
| 20260507052146 | 44 | 42 | 0.0 | 0.0 | 0.00 | 0.00 | 0.00 | 89 | 1015.7 |
| 20260507051646 | 44 | 42 | 0.0 | 0.0 | 0.00 | 0.00 | 0.00 | 89 | 1015.7 |
| 20260507051146 | 44 | 42 | 0.0 | 0.0 | 0.00 | 0.00 | 0.00 | 89 | 1015.6 |
| 20260507050651 | 44 | 42 | 0.0 | 0.0 | 0.00 | 0.00 | 0.00 | 89 | 1015.6 |
| 20260507050148 | 44 | 42 | 0.0 | 0.0 | 0.00 | 0.00 | 0.00 | 89 | 1015.6 |
| 20260507045647 | 44 | 42 | 0.0 | 0.0 | 0.00 | 0.00 | 0.00 | 89 | 1015.5 |
| 20260507045436 | 44 | 42 | 0.0 | 0.0 | 0.00 | 0.00 | 0.00 | 89 | 1015.5 |
| 20260507044646 | 44 | 42 | 0.0 | 0.0 | 0.00 | 0.00 | 0.00 | 89 | 1015.5 |
| 20260507044144 | 44 | 42 | 0.0 | 0.0 | 0.00 | 0.00 | 0.00 | 89 | 1015.5 |
| 20260507043645 | 44 | 42 | 0.0 | 0.0 | 0.00 | 0.00 | 0.00 | 89 | 1015.5 |
| 20260507043147 | 44 | 42 | 0.0 | 0.0 | 0.00 | 0.00 | 0.00 | 89 | 1015.4 |
| 20260507042643 | 44 | 42 | 0.0 | 0.0 | 0.00 | 0.00 | 0.00 | 89 | 1015.4 |
| 20260507042146 | 44 | 42 | 0.0 | 0.0 | 0.00 | 0.00 | 0.00 | 89 | 1015.4 |
| 20260507041648 | 44 | 42 | 0.0 | 0.0 | 0.00 | 0.00 | 0.00 | 89 | 1015.5 |
| 20260507041147 | 44 | 42 | 0.0 | 0.0 | 0.00 | 0.00 | 0.00 | 89 | 1015.4 |
| 20260507040645 | 44 | 42 | 0.0 | 0.0 | 0.00 | 0.00 | 0.00 | 89 | 1015.4 |
| 20260507040143 | 44 | 42 | 0.0 | 0.0 | 0.00 | 0.00 | 0.00 | 89 | 1015.5 |
| 20260507035644 | 44 | 42 | 0.0 | 0.0 | 0.00 | 0.00 | 0.00 | 89 | 1015.5 |
| 20260507035143 | 44 | 42 | 0.0 | 0.0 | 0.00 | 0.00 | 0.00 | 89 | 1015.4 |
| 20260507034646 | 44 | 42 | 0.0 | 0.0 | 0.00 | 0.00 | 0.00 | 89 | 1015.4 |
| 20260507034143 | 44 | 42 | 0.0 | 0.0 | 0.00 | 0.00 | 0.00 | 89 | 1015.5 |
| 20260507033940 | 44 | 42 | 0.0 | 0.0 | 0.00 | 0.00 | 0.00 | 89 | 1015.4 |
| 20260507033144 | 44 | 42 | 0.0 | 0.0 | 0.00 | 0.00 | 0.00 | 89 | 1015.3 |
| 20260507032643 | 45 | 42 | 0.0 | 0.0 | 0.00 | 0.00 | 0.00 | 89 | 1015.3 |
| 20260507032436 | 45 | 42 | 0.0 | 0.0 | 0.00 | 0.00 | 0.00 | 89 | 1015.3 |
| 20260507031929 | 45 | 42 | 0.0 | 0.0 | 0.00 | 0.00 | 0.00 | 89 | 1015.4 |
| 20260507031144 | 45 | 42 | 0.0 | 0.0 | 0.00 | 0.00 | 0.00 | 89 | 1015.4 |
| 20260507030642 | 45 | 42 | 0.0 | 0.0 | 0.00 | 0.00 | 0.00 | 90 | 1015.4 |
| 20260507030141 | 45 | 42 | 0.0 | 0.0 | 0.00 | 0.00 | 0.00 | 89 | 1015.4 |
| 20260507025937 | 45 | 42 | 0.0 | 0.0 | 0.00 | 0.00 | 0.00 | 89 | 1015.4 |
| 20260507025142 | 45 | 42 | 0.0 | 0.0 | 0.00 | 0.00 | 0.00 | 90 | 1015.2 |
| 20260507025115 | 45 | 42 | 0.0 | 0.0 | 0.00 | 0.00 | 0.00 | 90 | 1015.3 |
| 20260507025109 | 45 | 42 | 0.0 | 0.0 | 0.00 | 0.00 | 0.00 | 90 | 1015.3 |
| 20260507023640 | 45 | 42 | 0.0 | 0.0 | 0.00 | 0.00 | 0.00 | 90 | 1015.3 |
| 20260507023141 | 45 | 42 | 0.0 | 0.0 | 0.00 | 0.00 | 0.00 | 90 | 1015.4 |
| 20260507022641 | 45 | 42 | 0.0 | 0.0 | 0.00 | 0.00 | 0.00 | 90 | 1015.4 |
| 20260507022141 | 45 | 42 | 0.0 | 0.0 | 0.00 | 0.00 | 0.00 | 90 | 1015.4 |
| 20260507021643 | 45 | 42 | 0.0 | 1.0 | 0.00 | 0.00 | 0.00 | 90 | 1015.4 |
| 20260507021142 | 45 | 42 | 0.0 | 1.0 | 0.00 | 0.00 | 0.00 | 89 | 1015.4 |
| 20260507020641 | 45 | 42 | 0.0 | 0.0 | 0.00 | 0.00 | 0.00 | 89 | 1015.3 |
| 20260507020140 | 45 | 42 | 0.0 | 0.0 | 0.00 | 0.00 | 0.00 | 89 | 1015.3 |
| 20260507015641 | 45 | 42 | 0.0 | 0.0 | 0.00 | 0.00 | 0.00 | 89 | 1015.2 |
| 20260507015139 | 44 | 42 | 0.0 | 2.0 | 0.00 | 0.00 | 0.00 | 89 | 1015.3 |
| 20260507014930 | 44 | 42 | 0.0 | 2.0 | 0.00 | 0.00 | 0.00 | 88 | 1015.3 |
| 20260507014138 | 44 | 42 | 0.0 | 1.0 | 0.00 | 0.00 | 0.00 | 88 | 1015.2 |
| 20260507013640 | 44 | 42 | 0.0 | 0.0 | 0.00 | 0.00 | 0.00 | 88 | 1015.2 |
| 20260507013141 | 44 | 42 | 0.0 | 0.0 | 0.00 | 0.00 | 0.00 | 88 | 1015.2 |
| 20260507012641 | 44 | 42 | 0.0 | 3.0 | 0.00 | 0.00 | 0.00 | 88 | 1015.2 |
| 20260507012140 | 45 | 42 | 0.0 | 3.0 | 0.00 | 0.00 | 0.00 | 88 | 1015.2 |
| 20260507011638 | 45 | 42 | 1.0 | 3.0 | 0.00 | 0.00 | 0.00 | 88 | 1015.2 |
| 20260507011138 | 45 | 44 | 0.0 | 3.0 | 0.00 | 0.00 | 0.00 | 88 | 1015.1 |
| 20260507010640 | 45 | 44 | 0.0 | 3.0 | 0.00 | 0.00 | 0.00 | 88 | 1015.2 |
| 20260507010139 | 45 | 42 | 1.0 | 2.0 | 0.00 | 0.00 | 0.00 | 88 | 1015.1 |
| 20260507005639 | 45 | 42 | 1.0 | 3.0 | 0.00 | 0.00 | 0.00 | 88 | 1015.1 |
| 20260507005434 | 45 | 42 | 1.0 | 4.0 | 0.00 | 0.00 | 0.00 | 88 | 1015.2 |
| 20260507004637 | 45 | 42 | 2.0 | 4.0 | 0.00 | 0.00 | 0.00 | 88 | 1015.1 |
| 20260507004137 | 45 | 30 | 2.0 | 3.0 | 0.00 | 0.00 | 0.00 | 87 | 1015.1 |
| 20260507003638 | 46 | 28 | 1.0 | 3.0 | 0.00 | 0.00 | 0.00 | 87 | 1015.2 |
| 20260507003138 | 46 | 28 | 0.0 | 0.0 | 0.00 | 0.00 | 0.00 | 87 | 1015.2 |
| 20260507002638 | 46 | 28 | 0.0 | 2.0 | 0.00 | 0.00 | 0.00 | 87 | 1015.3 |
| 20260507002138 | 46 | 28 | 0.0 | 2.0 | 0.00 | 0.00 | 0.00 | 87 | 1015.3 |
| 20260507001943 | 46 | 28 | 0.0 | 2.0 | 0.00 | 0.00 | 0.00 | 88 | 1015.3 |
| 20260507001145 | 46 | 28 | 1.0 | 3.0 | 0.00 | 0.00 | 0.00 | 88 | 1015.3 |
| 20260507000637 | 46 | 30 | 0.0 | 3.0 | 0.00 | 0.00 | 0.00 | 88 | 1015.3 |
| 20260507000136 | 46 | 30 | 1.0 | 3.0 | 0.00 | 0.00 | 0.00 | 88 | 1015.3 |
| 20260506235636 | 46 | 30 | 0.0 | 3.0 | 0.00 | 0.00 | 0.00 | 88 | 1015.2 |
| 20260506235137 | 46 | 30 | 0.0 | 3.0 | 0.00 | 0.00 | 0.00 | 88 | 1015.3 |
| 20260506234930 | 46 | 28 | 1.0 | 5.0 | 0.00 | 0.00 | 0.00 | 87 | 1015.3 |
| 20260506234136 | 46 | 28 | 1.0 | 5.0 | 0.00 | 0.00 | 0.00 | 87 | 1015.2 |
| 20260506233635 | 46 | 37 | 1.0 | 5.0 | 0.00 | 0.00 | 0.00 | 88 | 1015.3 |
| 20260506233136 | 46 | 35 | 1.0 | 5.0 | 0.00 | 0.00 | 0.00 | 87 | 1015.3 |
| 20260506232636 | 46 | 6 | 0.0 | 1.0 | 0.00 | 0.00 | 0.00 | 87 | 1015.3 |
| 20260506232135 | 46 | 6 | 0.0 | 2.0 | 0.00 | 0.00 | 0.00 | 87 | 1015.2 |
| 20260506231722 | 46 | 6 | 1.0 | 3.0 | 0.00 | 0.00 | 0.00 | 87 | 1015.3 |
| 20260506230935 | 46 | 7 | 1.0 | 4.0 | 0.00 | 0.00 | 0.00 | 87 | 1015.2 |
| 20260506230133 | 46 | 38 | 1.0 | 3.0 | 0.00 | 0.00 | 0.00 | 87 | 1015.1 |
| 20260506225631 | 47 | 10 | 1.0 | 5.0 | 0.00 | 0.00 | 0.00 | 87 | 1015.1 |
| 20260506225132 | 47 | 10 | 2.0 | 5.0 | 0.00 | 0.00 | 0.00 | 86 | 1015.2 |
| 20260506224631 | 47 | 0 | 2.0 | 5.0 | 0.00 | 0.00 | 0.00 | 87 | 1015.1 |
| 20260506224131 | 47 | 52 | 1.0 | 3.0 | 0.00 | 0.00 | 0.00 | 87 | 1015.2 |
| 20260506223631 | 47 | 52 | 1.0 | 5.0 | 0.00 | 0.00 | 0.00 | 87 | 1015.2 |
| 20260506223131 | 47 | 55 | 1.0 | 5.0 | 0.00 | 0.00 | 0.00 | 87 | 1015.1 |
| 20260506222631 | 47 | 49 | 2.0 | 4.0 | 0.00 | 0.00 | 0.00 | 87 | 1015.2 |
| 20260506222132 | 47 | 51 | 2.0 | 4.0 | 0.00 | 0.00 | 0.00 | 87 | 1015.1 |
| 20260506221631 | 47 | 49 | 2.0 | 5.0 | 0.00 | 0.00 | 0.00 | 87 | 1015.2 |
| 20260506221131 | 47 | 61 | 1.0 | 5.0 | 0.00 | 0.00 | 0.00 | 86 | 1015.0 |
| 20260506220631 | 47 | 32 | 2.0 | 5.0 | 0.00 | 0.00 | 0.00 | 86 | 1015.1 |
| 20260506220131 | 47 | 27 | 2.0 | 5.0 | 0.00 | 0.00 | 0.00 | 86 | 1015.1 |
| 20260506215633 | 47 | 31 | 0.0 | 4.0 | 0.00 | 0.00 | 0.00 | 86 | 1015.0 |
| 20260506215130 | 47 | 39 | 1.0 | 4.0 | 0.00 | 0.00 | 0.00 | 86 | 1015.1 |
| 20260506214632 | 47 | 34 | 2.0 | 5.0 | 0.00 | 0.00 | 0.00 | 86 | 1015.0 |
| 20260506214134 | 47 | 18 | 2.0 | 6.0 | 0.00 | 0.00 | 0.00 | 86 | 1015.1 |
| 20260506213630 | 47 | 37 | 2.0 | 6.0 | 0.00 | 0.00 | 0.00 | 86 | 1015.0 |
| 20260506213141 | 47 | 38 | 3.0 | 5.0 | 0.00 | 0.00 | 0.00 | 86 | 1015.0 |
| 20260506212630 | 47 | 59 | 1.0 | 5.0 | 0.00 | 0.00 | 0.00 | 86 | 1015.1 |
| 20260506212133 | 47 | 61 | 1.0 | 5.0 | 0.00 | 0.00 | 0.00 | 86 | 1015.1 |
| 20260506211631 | 47 | 0 | 2.0 | 4.0 | 0.00 | 0.00 | 0.00 | 85 | 1015.1 |
| 20260506211131 | 47 | 51 | 1.0 | 6.0 | 0.00 | 0.00 | 0.00 | 85 | 1015.0 |
| 20260506210631 | 47 | 51 | 2.0 | 7.0 | 0.00 | 0.00 | 0.00 | 85 | 1015.1 |
| 20260506210130 | 47 | 51 | 3.0 | 10.0 | 0.00 | 0.00 | 0.00 | 85 | 1015.0 |
| 20260506205926 | 47 | 3 | 2.0 | 10.0 | 0.00 | 0.00 | 0.00 | 85 | 1014.9 |
| 20260506205131 | 48 | 49 | 2.0 | 6.0 | 0.00 | 0.00 | 0.00 | 85 | 1014.9 |
| 20260506204631 | 48 | 54 | 2.0 | 6.0 | 0.00 | 0.00 | 0.00 | 84 | 1014.9 |
| 20260506204427 | 48 | 51 | 3.0 | 6.0 | 0.00 | 0.00 | 0.00 | 84 | 1014.8 |
| 20260506203925 | 48 | 71 | 1.0 | 6.0 | 0.00 | 0.00 | 0.00 | 84 | 1014.9 |
| 20260506203130 | 48 | 0 | 2.0 | 7.0 | 0.00 | 0.00 | 0.00 | 84 | 1014.8 |
| 20260506202630 | 48 | 52 | 2.0 | 9.0 | 0.00 | 0.00 | 0.00 | 83 | 1014.8 |
| 20260506202130 | 48 | 56 | 5.0 | 10.0 | 0.00 | 0.00 | 0.00 | 83 | 1014.6 |
| 20260506201629 | 48 | 38 | 3.0 | 10.0 | 0.00 | 0.00 | 0.00 | 83 | 1014.6 |
| 20260506201428 | 48 | 52 | 3.0 | 7.0 | 0.00 | 0.00 | 0.00 | 82 | 1014.5 |
| 20260506200630 | 48 | 44 | 3.0 | 6.0 | 0.00 | 0.00 | 0.00 | 82 | 1014.4 |
| 20260506200131 | 48 | 48 | 3.0 | 9.0 | 0.00 | 0.00 | 0.00 | 81 | 1014.5 |
| 20260506195631 | 49 | 20 | 2.0 | 9.0 | 0.00 | 0.00 | 0.00 | 80 | 1014.3 |
| 20260506195129 | 49 | 65 | 4.0 | 7.0 | 0.00 | 0.00 | 0.00 | 80 | 1014.3 |
| 20260506194925 | 49 | 25 | 3.0 | 7.0 | 0.00 | 0.00 | 0.00 | 80 | 1014.3 |
| 20260506194128 | 49 | 11 | 2.0 | 11.0 | 0.00 | 0.00 | 0.00 | 80 | 1014.4 |
| 20260506193631 | 49 | 0 | 4.0 | 11.0 | 0.00 | 0.00 | 0.00 | 80 | 1014.3 |
| 20260506193125 | 49 | 54 | 3.0 | 10.0 | 0.00 | 0.00 | 0.00 | 79 | 1014.3 |
| 20260506192627 | 50 | 357 | 3.0 | 10.0 | 0.00 | 0.00 | 0.00 | 79 | 1014.2 |
| 20260506192125 | 50 | 0 | 3.0 | 7.0 | 0.00 | 0.00 | 0.00 | 79 | 1014.2 |
| 20260506191627 | 50 | 11 | 2.0 | 7.0 | 0.00 | 0.00 | 0.00 | 78 | 1014.1 |
| 20260506191126 | 50 | 54 | 3.0 | 7.0 | 0.00 | 0.00 | 0.00 | 78 | 1014.1 |
| 20260506190629 | 50 | 34 | 2.0 | 11.0 | 0.00 | 0.00 | 0.00 | 78 | 1014.0 |
| 20260506190124 | 50 | 21 | 5.0 | 11.0 | 0.00 | 0.00 | 0.00 | 78 | 1014.0 |
| 20260506185621 | 51 | 66 | 5.0 | 11.0 | 0.00 | 0.00 | 0.00 | 77 | 1013.9 |
| 20260506185120 | 51 | 34 | 6.0 | 12.0 | 0.00 | 0.00 | 0.00 | 77 | 1013.9 |
| 20260506184615 | 51 | 47 | 5.0 | 12.0 | 0.00 | 0.00 | 0.00 | 76 | 1013.9 |
| 20260506184116 | 51 | 58 | 4.0 | 11.0 | 0.00 | 0.00 | 0.00 | 76 | 1013.9 |
| 20260506183615 | 51 | 66 | 3.0 | 7.0 | 0.00 | 0.00 | 0.00 | 75 | 1013.8 |
| 20260506183258 | 51 | 97 | 5.0 | 10.0 | 0.00 | 0.00 | 0.00 | 74 | 1013.7 |
| 20260506183223 | 51 | 27 | 4.0 | 9.0 | 0.00 | 0.00 | 0.00 | 75 | 1013.8 |
| 20260506182110 | 51 | 48 | 5.0 | 10.0 | 0.00 | 0.00 | 0.00 | 73 | 1013.6 |
| 20260506181609 | 51 | 58 | 6.0 | 11.0 | 0.00 | 0.00 | 0.00 | 73 | 1013.5 |
| 20260506181108 | 52 | 37 | 6.0 | 11.0 | 0.00 | 0.00 | 0.00 | 72 | 1013.6 |
| 20260506180610 | 52 | 89 | 6.0 | 11.0 | 0.00 | 0.00 | 0.00 | 72 | 1013.5 |
| 20260506180111 | 52 | 66 | 6.0 | 11.0 | 0.00 | 0.00 | 0.00 | 72 | 1013.5 |
| 20260506175605 | 53 | 48 | 3.0 | 7.0 | 0.00 | 0.00 | 0.00 | 71 | 1013.4 |
| 20260506175106 | 53 | 55 | 3.0 | 5.0 | 0.00 | 0.00 | 0.00 | 70 | 1013.3 |
| 20260506174608 | 53 | 32 | 3.0 | 4.0 | 0.00 | 0.00 | 0.00 | 70 | 1013.3 |
| 20260506174113 | 54 | 45 | 4.0 | 5.0 | 0.00 | 0.00 | 0.00 | 69 | 1013.2 |
| 20260506173611 | 54 | 76 | 5.0 | 9.0 | 0.00 | 0.00 | 0.00 | 64 | 1013.2 |
| 20260506173109 | 54 | 47 | 9.0 | 9.0 | 0.00 | 0.00 | 0.00 | 64 | 1013.1 |
| 20260506172611 | 55 | 0 | 5.0 | 5.0 | 0.00 | 0.00 | 0.00 | 64 | 1013.1 |
| 20260506172116 | 0 | 0 | 3.0 | 5.0 | 0.00 | 0.00 | 0.00 | 1013.1 | |
| 20260506171603 | 0 | 20 | 5.0 | 5.0 | 0.00 | 0.00 | 0.00 | 1013.0 | |
| 20260506171352 | 55 | 55 | 5.0 | 6.0 | 0.00 | 0.00 | 0.00 | 64 | 1013.1 |
| 20260506170603 | 55 | 55 | 5.0 | 6.0 | 0.00 | 0.00 | 0.00 | 64 | 1013.1 |
| 20260506170346 | 55 | 355 | 2.0 | 3.0 | 0.00 | 0.00 | 0.00 | 63 | 1013.0 |
| 20260506165602 | 0 | 355 | 2.0 | 9.0 | 0.00 | 0.00 | 0.00 | 1013.0 | |
| 20260506165101 | 56 | 31 | 9.0 | 9.0 | 0.00 | 0.00 | 0.00 | 64 | 1013.0 |
| 20260506164603 | 56 | 341 | 6.0 | 9.0 | 0.00 | 0.00 | 0.00 | 64 | 1012.9 |
| 20260506164101 | 56 | 354 | 1.0 | 2.0 | 0.00 | 0.00 | 0.00 | 64 | 1013.0 |
| 20260506163601 | 55 | 3 | 2.0 | 4.0 | 0.00 | 0.00 | 0.00 | 65 | 1013.1 |
| 20260506163101 | 55 | 34 | 4.0 | 7.0 | 0.00 | 0.00 | 0.00 | 65 | 1013.1 |
| 20260506162603 | 0 | 17 | 6.0 | 7.0 | 0.00 | 0.00 | 0.00 | 1013.1 | |
| 20260506162354 | 0 | 34 | 3.0 | 9.0 | 0.00 | 0.00 | 0.00 | 1013.1 | |
| 20260506161601 | 0 | 0 | 5.0 | 9.0 | 0.00 | 0.00 | 0.00 | 1013.1 | |
| 20260506161101 | 55 | 347 | 0.0 | 0.0 | 0.00 | 0.00 | 0.00 | 65 | 1013.1 |
| 20260506160601 | 55 | 0 | 3.0 | 10.0 | 0.00 | 0.00 | 0.00 | 65 | 1013.1 |
| 20260506160100 | 55 | 0 | 3.0 | 10.0 | 0.00 | 0.00 | 0.00 | 65 | 1013.1 |
| 20260506155601 | 55 | 0 | 6.0 | 7.0 | 0.00 | 0.00 | 0.00 | 68 | 1013.2 |
| 20260506155101 | 55 | 38 | 1.0 | 5.0 | 0.00 | 0.00 | 0.00 | 66 | 1013.1 |
| 20260506154602 | 55 | 0 | 3.0 | 5.0 | 0.00 | 0.00 | 0.00 | 66 | 1013.3 |
| 20260506154101 | 55 | 11 | 4.0 | 5.0 | 0.00 | 0.00 | 0.00 | 66 | 1013.3 |
| 20260506153602 | 55 | 341 | 1.0 | 1.0 | 0.00 | 0.00 | 0.00 | 64 | 1013.3 |
| 20260506153101 | 56 | 10 | 0.0 | 4.0 | 0.00 | 0.00 | 0.00 | 64 | 1013.2 |
| 20260506152602 | 56 | 38 | 4.0 | 4.0 | 0.00 | 0.00 | 0.00 | 64 | 1013.3 |
| 20260506152101 | 56 | 0 | 0.0 | 1.0 | 0.00 | 0.00 | 0.00 | 65 | 1013.3 |
| 20260506151844 | 56 | 0 | 0.0 | 2.0 | 0.00 | 0.00 | 0.00 | 65 | 1013.3 |
| 20260506151059 | 56 | 337 | 2.0 | 2.0 | 0.00 | 0.00 | 0.00 | 69 | 1013.2 |
| 20260506150831 | 56 | 14 | 2.0 | 6.0 | 0.00 | 0.00 | 0.00 | 69 | 1013.3 |
| 20260506150053 | 0 | 0 | 6.0 | 6.0 | 0.00 | 0.00 | 0.00 | 1013.3 | |
| 20260506145543 | 56 | 314 | 1.0 | 6.0 | 0.00 | 0.00 | 0.00 | 69 | 1013.2 |
| 20260506145043 | 56 | 0 | 5.0 | 6.0 | 0.00 | 0.00 | 0.00 | 69 | 1013.2 |
| 20260506144542 | 56 | 357 | 4.0 | 4.0 | 0.00 | 0.00 | 0.00 | 69 | 1013.2 |
| 20260506144043 | 56 | 357 | 4.0 | 4.0 | 0.00 | 0.00 | 0.00 | 69 | 1013.2 |
| 20260506143824 | 0 | 10 | 3.0 | 3.0 | 0.00 | 0.00 | 0.00 | 1013.2 | |
| 20260506143054 | 55 | 52 | 4.0 | 6.0 | 0.00 | 0.00 | 0.00 | 67 | 1013.2 |
| 20260506142541 | 55 | 52 | 4.0 | 6.0 | 0.00 | 0.00 | 0.00 | 67 | 1013.2 |
| 20260506142050 | 56 | 21 | 0.0 | 6.0 | 0.00 | 0.00 | 0.00 | 67 | 1013.2 |
| 20260506141541 | 56 | 14 | 3.0 | 6.0 | 0.00 | 0.00 | 0.00 | 67 | 1013.3 |
| 20260506141040 | 0 | 39 | 3.0 | 3.0 | 0.00 | 0.00 | 0.00 | 1013.3 | |
| 20260506140833 | 56 | 0 | 5.0 | 5.0 | 0.00 | 0.00 | 0.00 | 69 | 1013.2 |
| 20260506140052 | 56 | 0 | 5.0 | 6.0 | 0.00 | 0.00 | 0.00 | 69 | 1013.2 |
| 20260506135536 | 56 | 333 | 1.0 | 6.0 | 0.00 | 0.00 | 0.00 | 69 | 1013.3 |
| 20260506135037 | 56 | 45 | 1.0 | 5.0 | 0.00 | 0.00 | 0.00 | 69 | 1013.2 |
| 20260506134535 | 56 | 0.0 | 0.0 | 0.00 | 0.00 | 0.00 | 70 | 1013.3 | |
| 20260506134036 | 56 | 28 | 2.0 | 2.0 | 0.00 | 0.00 | 0.00 | 70 | 1013.3 |
| 20260506133531 | 55 | 28 | 2.0 | 2.0 | 0.00 | 0.00 | 0.00 | 73 | 1013.4 |
| 20260506133042 | 55 | 78 | 6.0 | 6.0 | 0.00 | 0.00 | 0.00 | 73 | 1013.4 |
| 20260506132531 | 55 | 78 | 6.0 | 7.0 | 0.00 | 0.00 | 0.00 | 73 | 1013.3 |
| 20260506132034 | 54 | 334 | 7.0 | 7.0 | 0.00 | 0.00 | 0.00 | 73 | 1013.3 |
| 20260506131530 | 54 | 0.0 | 0.0 | 0.00 | 0.00 | 0.00 | 73 | 1013.4 | |
| 20260506131028 | 54 | 0 | 4.0 | 6.0 | 0.00 | 0.00 | 0.00 | 73 | 1013.4 |
| 20260506130518 | 54 | 0 | 4.0 | 7.0 | 0.00 | 0.00 | 0.00 | 73 | 1013.5 |
| 20260506130044 | 54 | 48 | 4.0 | 7.0 | 0.00 | 0.00 | 0.00 | 79 | 1013.6 |
| 20260506125512 | 54 | 62 | 4.0 | 9.0 | 0.00 | 0.00 | 0.00 | 79 | 1013.5 |
| 20260506125005 | 54 | 55 | 6.0 | 9.0 | 0.00 | 0.00 | 0.00 | 79 | 1013.6 |
| 20260506124516 | 0 | 56 | 3.0 | 3.0 | 0.00 | 0.00 | 0.00 | 1013.5 | |
| 20260506124322 | 0 | 32 | 3.0 | 3.0 | 0.00 | 0.00 | 0.00 | 1013.5 | |
| 20260506123509 | 0 | 17 | 1.0 | 2.0 | 0.00 | 0.00 | 0.00 | 1013.5 | |
| 20260506123004 | 0 | 348 | 2.0 | 4.0 | 0.00 | 0.00 | 0.00 | 1013.6 | |
| 20260506122510 | 52 | 14 | 3.0 | 4.0 | 0.00 | 0.00 | 0.00 | 78 | 1013.6 |
| 20260506122005 | 52 | 21 | 1.0 | 5.0 | 0.00 | 0.00 | 0.00 | 78 | 1013.6 |
| 20260506121456 | 52 | 23 | 2.0 | 6.0 | 0.00 | 0.00 | 0.00 | 77 | 1013.7 |
| 20260506121324 | 52 | 350 | 2.0 | 7.0 | 0.00 | 0.00 | 0.00 | 77 | 1013.6 |
| 20260506120805 | 52 | 0 | 1.0 | 7.0 | 0.00 | 0.00 | 0.00 | 75 | 1013.6 |
| 20260506115955 | 53 | 7 | 4.0 | 7.0 | 0.00 | 0.00 | 0.00 | 75 | 1013.6 |
| 20260506115757 | 53 | 37 | 2.0 | 6.0 | 0.00 | 0.00 | 0.00 | 77 | 1013.6 |
| 20260506114953 | 53 | 338 | 5.0 | 5.0 | 0.00 | 0.00 | 0.00 | 77 | 1013.6 |
| 20260506114450 | 53 | 30 | 2.0 | 5.0 | 0.00 | 0.00 | 0.00 | 77 | 1013.6 |
| 20260506113951 | 52 | 52 | 2.0 | 5.0 | 0.00 | 0.00 | 0.00 | 77 | 1013.6 |
| 20260506113450 | 52 | 18 | 2.0 | 5.0 | 0.00 | 0.00 | 0.00 | 74 | 1013.7 |
| 20260506112948 | 53 | 344 | 5.0 | 5.0 | 0.00 | 0.00 | 0.00 | 74 | 1013.6 |
| 20260506112746 | 53 | 0 | 4.0 | 4.0 | 0.00 | 0.00 | 0.00 | 74 | 1013.7 |
| 20260506111948 | 53 | 66 | 2.0 | 7.0 | 0.00 | 0.00 | 0.00 | 74 | 1013.7 |
| 20260506111448 | 0 | 24 | 3.0 | 7.0 | 0.00 | 0.00 | 0.00 | 1013.6 | |
| 20260506111106 | 54 | 56 | 5.0 | 10.0 | 0.00 | 0.00 | 0.00 | 74 | 1013.6 |
| 20260506111018 | 54 | 39 | 4.0 | 10.0 | 0.00 | 0.00 | 0.00 | 74 | 1013.6 |
| 20260506105938 | 54 | 42 | 4.0 | 12.0 | 0.00 | 0.00 | 0.00 | 78 | 1013.6 |
| 20260506105440 | 54 | 73 | 9.0 | 12.0 | 0.00 | 0.00 | 0.00 | 78 | 1013.7 |
| 20260506104940 | 53 | 61 | 7.0 | 9.0 | 0.00 | 0.00 | 0.00 | 81 | 1013.6 |
| 20260506104440 | 53 | 340 | 6.0 | 6.0 | 0.00 | 0.00 | 0.00 | 81 | 1013.6 |
| 20260506104306 | 0 | 7 | 2.0 | 6.0 | 0.00 | 0.00 | 0.00 | 1013.7 | |
| 20260506103441 | 0 | 0 | 6.0 | 10.0 | 0.00 | 0.00 | 0.00 | 1013.7 | |
| 20260506103317 | 0 | 52 | 7.0 | 10.0 | 0.00 | 0.00 | 0.00 | 1013.7 | |
| 20260506102440 | 0 | 51 | 7.0 | 7.0 | 0.00 | 0.00 | 0.00 | 1013.6 | |
| 20260506101941 | 51 | 48 | 3.0 | 9.0 | 0.00 | 0.00 | 0.00 | 74 | 1013.5 |
| 20260506101440 | 51 | 30 | 4.0 | 14.0 | 0.00 | 0.00 | 0.00 | 74 | 1013.5 |
| 20260506100940 | 51 | 17 | 10.0 | 14.0 | 0.00 | 0.00 | 0.00 | 74 | 1013.6 |
| 20260506100440 | 51 | 27 | 10.0 | 13.0 | 0.00 | 0.00 | 0.00 | 74 | 1013.6 |
| 20260506095948 | 51 | 59 | 6.0 | 10.0 | 0.00 | 0.00 | 0.00 | 73 | 1013.5 |
| 20260506095442 | 51 | 51 | 2.0 | 10.0 | 0.00 | 0.00 | 0.00 | 72 | 1013.5 |
| 20260506094938 | 52 | 351 | 4.0 | 10.0 | 0.00 | 0.00 | 0.00 | 72 | 1013.4 |
| 20260506094438 | 52 | 348 | 4.0 | 4.0 | 0.00 | 0.00 | 0.00 | 72 | 1013.4 |
| 20260506093938 | 52 | 66 | 2.0 | 9.0 | 0.00 | 0.00 | 0.00 | 72 | 1013.5 |
| 20260506093439 | 0 | 0 | 6.0 | 9.0 | 0.00 | 0.00 | 0.00 | 1013.5 | |
| 20260506092939 | 0 | 23 | 4.0 | 5.0 | 0.00 | 0.00 | 0.00 | 1013.4 | |
| 20260506092438 | 52 | 23 | 4.0 | 12.0 | 0.00 | 0.00 | 0.00 | 74 | 1013.5 |
| 20260506091933 | 52 | 23 | 12.0 | 12.0 | 0.00 | 0.00 | 0.00 | 74 | 1013.4 |
| 20260506091433 | 52 | 55 | 6.0 | 12.0 | 0.00 | 0.00 | 0.00 | 74 | 1013.4 |
| 20260506090926 | 52 | 37 | 8.0 | 12.0 | 0.00 | 0.00 | 0.00 | 74 | 1013.4 |
| 20260506090423 | 52 | 31 | 4.0 | 4.0 | 0.00 | 0.00 | 0.00 | 73 | 1013.5 |
| 20260506085918 | 52 | 11 | 3.0 | 5.0 | 0.00 | 0.00 | 0.00 | 73 | 1013.4 |
| 20260506085417 | 52 | 14 | 5.0 | 14.0 | 0.00 | 0.00 | 0.00 | 74 | 1013.3 |
| 20260506084916 | 52 | 55 | 8.0 | 14.0 | 0.00 | 0.00 | 0.00 | 74 | 1013.3 |
| 20260506084416 | 51 | 13 | 8.0 | 11.0 | 0.00 | 0.00 | 0.00 | 74 | 1013.2 |
| 20260506083915 | 51 | 25 | 3.0 | 11.0 | 0.00 | 0.00 | 0.00 | 74 | 1013.2 |
| 20260506083414 | 51 | 3 | 6.0 | 14.0 | 0.00 | 0.00 | 0.00 | 75 | 1013.2 |
| 20260506082915 | 51 | 47 | 5.0 | 14.0 | 0.00 | 0.00 | 0.00 | 75 | 1013.3 |
| 20260506082708 | 50 | 30 | 5.0 | 14.0 | 0.00 | 0.00 | 0.00 | 75 | 1013.3 |
| 20260506081914 | 51 | 0 | 4.0 | 9.0 | 0.00 | 0.00 | 0.00 | 77 | 1013.3 |
| 20260506081408 | 50 | 34 | 5.0 | 10.0 | 0.00 | 0.00 | 0.00 | 77 | 1013.3 |
| 20260506080902 | 50 | 337 | 5.0 | 13.0 | 0.00 | 0.00 | 0.00 | 77 | 1013.3 |
| 20260506080405 | 49 | 71 | 5.0 | 13.0 | 0.00 | 0.00 | 0.00 | 77 | 1013.3 |